[[[{"header":{"parameterUnit":"kt","parameterCategory":2,"dx":1,"dy":1,"la1":30.253999710083008,"la2":30.299108505249023,"lo1":-89.0895004272461,"lo2":-89.04439544677734,"nx":28,"ny":28,"refTime":"2022-09-19T21:00:00:Z","depth":0,"parameterNumber":1,"parameterNumberName":"U-component_of_WINDS"},"data":[-2.7997,-2.7963,-2.7905,-2.7839,-2.7775,-2.772,-2.7681,-2.7625,-2.7565,-2.7491,-2.7438,-2.7374,-2.729,-2.7211,-2.715,-2.7123,-2.7102,-2.7134,-2.7097,-2.7007,-2.6991,-2.6976,-2.6981,-2.713,-2.713,-2.7198,-2.7199,-2.72,-2.7942,-2.7879,-2.7826,-2.7736,-2.769,-2.7625,-2.7546,-2.7513,-2.7464,-2.7389,-2.7332,-2.7262,-2.7198,-2.71,-2.7028,-2.701,-2.6975,-2.6995,-2.6997,-2.6985,-2.6887,-2.6893,-2.7025,-2.7025,-2.7025,-2.7025,-2.7025,-2.7025,-2.7825,-2.7807,-2.7717,-2.7659,-2.7596,-2.7536,-2.7507,-2.7429,-2.7375,-2.7293,-2.7231,-2.7174,-2.7086,-2.6968,-2.6913,-2.6867,-2.6833,-2.6836,-2.6837,-2.6841,-2.6854,-2.6768,-2.6851,-2.6851,-2.685,-2.685,-2.6849,0,-2.7722,-2.7674,-2.7618,-2.7546,-2.7499,-2.7437,-2.7369,-2.7349,-2.7223,-2.7184,-2.7122,-2.7076,-2.6985,-2.6919,-2.6837,-2.6777,-2.6704,-2.6688,-2.6691,-2.6722,-2.6762,-2.6743,-2.6589,-2.6687,-2.6685,-2.6684,-2.6683,-2.6682,-2.7602,-2.7586,-2.7462,-2.7431,-2.7378,-2.7329,-2.7287,-2.7177,-2.7138,-2.7037,-2.7025,-2.6957,-2.6897,-2.6806,-2.6712,-2.6642,-2.6606,-2.6651,-2.6595,-2.6627,-2.6609,-2.6613,-2.6611,-2.6665,-2.6667,-2.6669,-2.667,0,-2.7541,-2.7442,-2.7397,-2.7274,-2.7242,-2.7231,-2.7125,-2.71,-2.7025,-2.6981,-2.6964,-2.6845,-2.6785,-2.6682,-2.6592,-2.654,-2.6521,-2.6486,-2.6552,-2.654,-2.6572,-2.6571,-2.6685,-2.6695,-2.6537,-2.6538,-2.654,0,-2.74,-2.7382,-2.7236,-2.7215,-2.7192,-2.7081,-2.7061,-2.6993,-2.6914,-2.6878,-2.6777,-2.6745,-2.6618,-2.6571,-2.6494,-2.6459,-2.6441,-2.64,-2.6381,-2.6411,-2.6416,-2.6388,-2.6383,-2.6333,-2.6332,-2.6332,-2.6331,0,-2.7316,-2.7215,-2.718,-2.7141,-2.7006,-2.6992,-2.6935,-2.6844,-2.6804,-2.6734,-2.6706,-2.6632,-2.6592,-2.6537,-2.6439,-2.6406,-2.6393,-2.6327,-2.6351,-2.6354,-2.6355,-2.6357,-2.6482,-2.6331,-2.6331,-2.633,-2.633,0,-2.7187,-2.7119,-2.7082,-2.6968,-2.6946,-2.6922,-2.6842,-2.6797,-2.6709,-2.6659,-2.6602,-2.6522,-2.6481,-2.6424,-2.6366,-2.6351,-2.6317,-2.6273,-2.6273,-2.6264,-2.6203,-2.6291,-2.6418,-2.6429,-2.6256,-2.6255,-2.6254,0,-2.712,-2.7054,-2.6958,-2.6925,-2.6881,-2.6771,-2.6742,-2.6666,-2.6596,-2.6548,-2.647,-2.6415,-2.635,-2.6318,-2.6303,-2.6221,-2.6241,-2.6214,-2.6148,-2.6147,-2.6178,-2.6294,-2.634,-2.6402,-2.6245,-2.6246,-2.6246,0,-2.7054,-2.689,-2.6891,-2.6841,-2.6722,-2.6684,-2.665,-2.6571,-2.6545,-2.6468,-2.6438,-2.6356,-2.6304,-2.6253,-2.6179,-2.6169,-2.6224,-2.6113,-2.6109,-2.6139,-2.623,-2.6275,-2.6285,-2.6177,-2.6178,-2.6178,-2.6239,0,-2.6887,-2.684,-2.6836,-2.6729,-2.6683,-2.6655,-2.6544,-2.651,-2.6444,-2.637,-2.6322,-2.623,-2.6148,-2.6131,-2.6065,-2.6074,-2.6056,-2.6001,-2.5938,-2.6014,-2.6031,-2.6038,-2.5921,-2.5919,-2.5917,-2.5915,0,0,-2.6848,-2.6778,-2.6671,-2.6634,-2.6589,-2.6473,-2.6454,-2.6395,-2.628,-2.6251,-2.6214,-2.6087,-2.6013,-2.5966,-2.5981,-2.5947,-2.5938,-2.5915,-2.5978,-2.5985,-2.5992,-2.6013,-2.6021,-2.5911,-2.591,-2.5909,-2.5909,0,-2.6763,-2.6692,-2.6673,-2.6608,-2.6508,-2.643,-2.6426,-2.6305,-2.6257,-2.6207,-2.6112,-2.6069,-2.5969,-2.5905,-2.5859,-2.5918,-2.5849,-2.5901,-2.5972,-2.596,-2.5971,-2.5979,-2.6002,-2.6012,-2.5904,-2.5904,-2.5904,0,-2.6681,-2.6593,-2.6571,-2.646,-2.6393,-2.6349,-2.6256,-2.6212,-2.6178,-2.6052,-2.6004,-2.5938,-2.5841,-2.5809,-2.5791,-2.5757,-2.5774,-2.5747,-2.5758,-2.5753,-2.5737,-2.575,-2.5761,-2.5613,-2.5613,-2.5612,0,0,-2.6623,-2.6578,-2.6448,-2.6434,-2.6398,-2.6282,-2.6246,-2.6177,-2.6092,-2.6059,-2.5972,-2.5893,-2.5833,-2.5796,-2.5734,-2.5715,-2.5686,-2.5716,-2.573,-2.5742,-2.5744,-2.5731,-2.5743,-2.561,-2.561,-2.561,0,0,-2.6595,-2.6444,-2.6392,-2.6362,-2.6286,-2.6155,-2.6151,-2.6084,-2.6017,-2.6008,-2.5886,-2.5859,-2.5827,-2.5765,-2.5751,-2.571,-2.5649,-2.565,-2.5752,-2.5767,-2.5781,-2.5797,-2.5642,0,0,0,0,0,-2.6452,-2.6463,-2.6418,-2.6396,-2.6254,-2.6181,-2.6162,-2.6063,-2.6023,-2.6021,-2.5938,-2.5865,-2.5733,-2.5718,-2.5697,-2.5714,-2.5584,-2.5589,-2.5593,-2.5719,-2.5737,-2.5752,0,0,0,0,0,0,-2.6442,-2.6416,-2.6417,-2.6289,-2.6256,-2.618,-2.609,-2.6063,-2.602,-2.6007,-2.5884,-2.5861,-2.5774,-2.5721,-2.5704,-2.5723,-2.5647,-2.5586,-2.559,-2.5593,-2.5725,-2.5739,-2.5752,0,0,0,0,0,-2.6435,-2.6413,-2.6212,-2.6288,-2.6259,-2.613,-2.6089,-2.6066,-2.603,-2.59,-2.5876,-2.5959,-2.5777,-2.5756,-2.571,-2.5733,-2.5658,-2.5652,-2.5588,-2.5592,-2.5594,-2.5732,0,0,0,0,0,0,-2.6429,-2.6391,-2.6204,-2.6191,-2.6276,-2.6132,-2.6106,-2.6068,-2.5924,-2.59,-2.597,-2.5962,-2.578,-2.5763,-2.5747,-2.5742,-2.5667,-2.5661,-2.5657,-2.5591,-2.5593,-2.5595,0,0,0,0,0,0,-2.6402,-2.6382,-2.6197,-2.6188,-2.6173,-2.6134,-2.6111,-2.6057,-2.5924,-2.6002,-2.599,-2.5968,-2.5803,-2.5768,-2.5755,-2.5674,-2.5674,-2.5668,-2.5664,-2.5661,-2.5593,-2.5595,0,0,0,0,0,0,-2.6391,-2.6374,-2.619,-2.618,-2.6167,-2.6019,-2.6084,-2.5944,-2.5918,-2.601,-2.5912,-2.591,-2.581,-2.5795,-2.5761,-2.5686,-2.5677,-2.5673,-2.567,-2.5667,-2.5665,0,0,0,0,0,0,0,-2.6383,-2.6524,-2.6278,-2.6172,-2.6161,-2.6076,-2.6072,-2.6069,-2.5917,-2.5915,-2.5913,-2.5911,-2.5706,-2.57,-2.5694,-2.5696,0,0,-2.5674,-2.5671,0,0,0,0,0,0,0,0,-2.6529,-2.6525,-2.6278,-2.6275,-2.6272,-2.6075,-2.6073,-2.607,-2.5917,-2.5915,-2.5913,-2.5912,-2.5704,-2.5699,-2.5694,0,0,0,0,0,0,0,0,0,0,0,0,0,0,0,-2.6277,-2.6275,0,-2.6075,-2.6073,-2.607,-2.5917,-2.5915,-2.5914,-2.5912,-2.5703,-2.5699,-2.5695,0,0,0,0,0,0,0,0,0,0,0,0,0,0,0,0,0,0,0,0,0,0,0,0,0,0,0,0,0,0,0,0,0,0,0,0,0,0,0,0,0,0,0,0,0,0,0,0,0,0,0,0,0,0,0,0,0,0,0,0,0,0,0,0,0,0,0,0,0]}],[{"header":{"parameterUnit":"kt","parameterCategory":2,"dx":1,"dy":1,"la1":30.253999710083008,"la2":30.299108505249023,"lo1":-89.0895004272461,"lo2":-89.04439544677734,"nx":28,"ny":28,"refTime":"2022-09-19T21:00:00:Z","depth":0,"parameterNumber":2,"parameterNumberName":"V-component_of_WINDS"},"data":[-1.4063,-1.4044,-1.4054,-1.4037,-1.4043,-1.4035,-1.4035,-1.4037,-1.404,-1.4032,-1.4029,-1.4037,-1.4045,-1.4045,-1.4044,-1.4047,-1.4047,-1.4035,-1.4042,-1.4087,-1.4094,-1.41,-1.4106,-1.4034,-1.4034,-1.3996,-1.3996,-1.3996,-1.4101,-1.4107,-1.41,-1.41,-1.4095,-1.4113,-1.4115,-1.411,-1.4102,-1.4105,-1.4101,-1.4095,-1.4091,-1.4103,-1.4101,-1.4095,-1.4104,-1.4094,-1.4096,-1.4098,-1.4145,-1.4151,-1.4087,-1.4087,-1.4087,-1.4087,-1.4087,-1.4087,-1.4175,-1.4162,-1.4167,-1.416,-1.4162,-1.4162,-1.4152,-1.4161,-1.4155,-1.4152,-1.4163,-1.4154,-1.416,-1.4161,-1.4163,-1.4157,-1.417,-1.4162,-1.4161,-1.416,-1.4159,-1.4219,-1.4157,-1.4157,-1.4157,-1.4157,-1.4157,0,-1.4232,-1.4241,-1.4234,-1.423,-1.4224,-1.4222,-1.4221,-1.4215,-1.4235,-1.4229,-1.4221,-1.4217,-1.4212,-1.4206,-1.4205,-1.4209,-1.4229,-1.423,-1.4225,-1.4222,-1.422,-1.4225,-1.4306,-1.4232,-1.4232,-1.4233,-1.4233,-1.4234,-1.4311,-1.4293,-1.4301,-1.4295,-1.4296,-1.4285,-1.428,-1.4299,-1.4294,-1.4296,-1.4284,-1.4277,-1.4273,-1.4258,-1.4269,-1.4264,-1.4274,-1.4246,-1.4273,-1.4271,-1.4279,-1.4281,-1.4281,-1.4241,-1.424,-1.4239,-1.4238,0,-1.4356,-1.4369,-1.4343,-1.4352,-1.4354,-1.4335,-1.4343,-1.433,-1.4339,-1.4324,-1.4321,-1.4336,-1.4327,-1.4342,-1.4334,-1.4343,-1.4317,-1.4324,-1.4317,-1.4321,-1.43,-1.4303,-1.4221,-1.4214,-1.4284,-1.4284,-1.4283,0,-1.443,-1.4404,-1.4427,-1.4411,-1.4384,-1.4403,-1.4377,-1.4382,-1.4384,-1.4372,-1.4394,-1.4382,-1.4402,-1.4393,-1.4405,-1.4386,-1.4383,-1.439,-1.4394,-1.439,-1.439,-1.4389,-1.4394,-1.4398,-1.4399,-1.4399,-1.4399,0,-1.4502,-1.448,-1.4454,-1.4452,-1.4457,-1.4444,-1.4446,-1.4448,-1.4443,-1.4438,-1.4435,-1.4427,-1.4424,-1.4419,-1.4435,-1.4453,-1.441,-1.4439,-1.4417,-1.4417,-1.4408,-1.4409,-1.4331,-1.44,-1.44,-1.44,-1.44,0,-1.4564,-1.4557,-1.4514,-1.4521,-1.4515,-1.4496,-1.449,-1.4477,-1.4477,-1.4484,-1.4479,-1.4496,-1.4476,-1.4506,-1.4481,-1.4501,-1.4498,-1.4501,-1.45,-1.4501,-1.4534,-1.4492,-1.4413,-1.4407,-1.4501,-1.4502,-1.4503,0,-1.4645,-1.4604,-1.4619,-1.4578,-1.4562,-1.4589,-1.4569,-1.4567,-1.4573,-1.4562,-1.4569,-1.4554,-1.4578,-1.4575,-1.456,-1.4568,-1.4541,-1.4571,-1.4559,-1.4559,-1.4563,-1.4489,-1.4475,-1.4428,-1.4513,-1.4512,-1.4511,0,-1.471,-1.4713,-1.4704,-1.4704,-1.4702,-1.4686,-1.4662,-1.4651,-1.4643,-1.4635,-1.4618,-1.4594,-1.4614,-1.4608,-1.4619,-1.4603,-1.456,-1.4625,-1.4626,-1.4617,-1.4518,-1.4506,-1.4498,-1.4572,-1.4571,-1.4569,-1.452,0,-1.4811,-1.4789,-1.4764,-1.4756,-1.4745,-1.4717,-1.4731,-1.4719,-1.4732,-1.4738,-1.471,-1.4709,-1.4697,-1.4688,-1.4699,-1.4656,-1.4666,-1.4685,-1.4716,-1.4665,-1.465,-1.4643,-1.4738,-1.4739,-1.474,-1.4741,0,0,-1.4888,-1.4856,-1.4871,-1.4847,-1.484,-1.4867,-1.4837,-1.4832,-1.4821,-1.4817,-1.4833,-1.48,-1.4798,-1.4763,-1.4748,-1.474,-1.4736,-1.4751,-1.4688,-1.4682,-1.4677,-1.466,-1.4652,-1.4742,-1.4742,-1.4743,-1.4743,0,-1.4928,-1.4922,-1.489,-1.4886,-1.4881,-1.4888,-1.488,-1.4879,-1.4882,-1.4851,-1.4874,-1.4858,-1.4827,-1.4825,-1.4819,-1.4755,-1.4774,-1.4749,-1.4713,-1.4696,-1.4689,-1.4682,-1.4664,-1.4657,-1.4745,-1.4745,-1.4745,0,-1.4997,-1.4996,-1.498,-1.496,-1.4956,-1.4936,-1.4972,-1.4946,-1.4932,-1.4962,-1.4931,-1.4932,-1.4926,-1.4888,-1.4871,-1.4886,-1.481,-1.4833,-1.4828,-1.4828,-1.4811,-1.4803,-1.4795,-1.4895,-1.4896,-1.4896,0,0,-1.503,-1.5008,-1.5011,-1.4969,-1.4966,-1.4975,-1.4964,-1.4975,-1.4968,-1.4966,-1.4966,-1.496,-1.4944,-1.4932,-1.4917,-1.4871,-1.4874,-1.4851,-1.4844,-1.4838,-1.4834,-1.4816,-1.4808,-1.4898,-1.4898,-1.4898,0,0,-1.5046,-1.5048,-1.5061,-1.5014,-1.5007,-1.5007,-1.4982,-1.4999,-1.4985,-1.499,-1.5007,-1.5006,-1.497,-1.4969,-1.4992,-1.4929,-1.4958,-1.4953,-1.4931,-1.4922,-1.4915,-1.4917,-1.5028,0,0,0,0,0,-1.5093,-1.5048,-1.506,-1.5054,-1.5027,-1.5001,-1.4997,-1.501,-1.5033,-1.5013,-1.5017,-1.5036,-1.4986,-1.5007,-1.5001,-1.4975,-1.4922,-1.4918,-1.4914,-1.4875,-1.4866,-1.4858,0,0,0,0,0,0,-1.509,-1.5082,-1.5061,-1.5059,-1.5053,-1.5002,-1.5043,-1.5046,-1.5035,-1.504,-1.5035,-1.5036,-1.5047,-1.5011,-1.5005,-1.4981,-1.503,-1.492,-1.4917,-1.4913,-1.4872,-1.4864,-1.4858,0,0,0,0,0,-1.5088,-1.5082,-1.5035,-1.506,-1.5055,-1.5061,-1.5045,-1.5047,-1.504,-1.5044,-1.5046,-1.505,-1.5046,-1.5042,-1.5008,-1.4983,-1.5034,-1.5032,-1.4918,-1.4915,-1.4913,-1.4868,0,0,0,0,0,0,-1.5087,-1.5085,-1.5034,-1.5033,-1.5077,-1.5065,-1.5063,-1.5049,-1.5045,-1.5046,-1.506,-1.5063,-1.5044,-1.5042,-1.5039,-1.4983,-1.5037,-1.5035,-1.5034,-1.4916,-1.4914,-1.4912,0,0,0,0,0,0,-1.5088,-1.5083,-1.5034,-1.5055,-1.5056,-1.5067,-1.5066,-1.5037,-1.5044,-1.5061,-1.5064,-1.5061,-1.5049,-1.5041,-1.5039,-1.4994,-1.504,-1.5038,-1.5036,-1.5035,-1.4914,-1.4912,0,0,0,0,0,0,-1.5086,-1.5082,-1.5055,-1.5056,-1.5058,-1.5047,-1.5043,-1.5014,-1.5062,-1.5061,-1.5066,-1.5069,-1.5048,-1.5046,-1.5039,-1.4995,-1.4994,-1.504,-1.5038,-1.5037,-1.5037,0,0,0,0,0,0,0,-1.5085,-1.5108,-1.504,-1.5057,-1.5059,-1.5024,-1.5024,-1.5023,-1.5062,-1.5064,-1.5066,-1.5068,-1.5052,-1.505,-1.5047,-1.4995,0,0,-1.504,-1.5039,0,0,0,0,0,0,0,0,-1.511,-1.5108,-1.504,-1.504,-1.504,-1.5024,-1.5024,-1.5023,-1.5063,-1.5064,-1.5066,-1.5067,-1.5051,-1.5049,-1.5048,0,0,0,0,0,0,0,0,0,0,0,0,0,0,0,-1.504,-1.504,0,-1.5024,-1.5024,-1.5024,-1.5063,-1.5064,-1.5065,-1.5066,-1.5051,-1.5049,-1.5048,0,0,0,0,0,0,0,0,0,0,0,0,0,0,0,0,0,0,0,0,0,0,0,0,0,0,0,0,0,0,0,0,0,0,0,0,0,0,0,0,0,0,0,0,0,0,0,0,0,0,0,0,0,0,0,0,0,0,0,0,0,0,0,0,0,0,0,0,0]}]]]